Location: Dillon
(41.1766°N, 107.0923°W)
Time: 03:19:39
(UTC+00:00)

Tiangong - Visible Passes

Search period start: 03 October 2023 00:00
Search period end: 13 October 2023 00:00
Orbit: 371 x 384 km, 41.5° (Epoch: 02 October)

Date Brightness Start Highest point End Pass type
(mag) Time Alt. Az. Time Alt. Az. Time Alt. Az.
03 Oct -1.8 01:12:27 10° WSW 01:15:32 52° SSE 01:18:34 10° E visible
03 Oct -0.4 02:49:02 10° W 02:50:55 33° W 02:50:55 33° W visible
04 Oct -2.2 01:47:00 10° W 01:50:09 90° ENE 01:51:49 25° E visible
04 Oct 1.4 03:23:43 10° W 03:23:52 11° W 03:23:52 11° W visible
05 Oct -2.2 02:21:36 10° W 02:24:39 82° NW 02:24:39 82° NW visible
06 Oct -2.2 01:19:23 10° W 01:22:32 83° N 01:25:20 12° E visible
06 Oct 0.4 02:56:05 10° W 02:57:23 22° W 02:57:23 22° W visible
07 Oct -2.3 01:53:46 10° W 01:56:55 85° SSW 01:57:59 38° ESE visible
08 Oct -1.1 02:28:04 10° W 02:30:34 40° SW 02:30:34 40° SW visible
09 Oct -2.0 01:25:33 10° W 01:28:40 69° SSW 01:31:04 16° ESE visible
09 Oct 1.1 03:02:40 10° WSW 03:03:06 12° WSW 03:03:06 12° WSW visible
10 Oct -0.8 01:59:44 10° W 02:02:34 32° SSW 02:03:35 25° SSE visible
11 Oct -1.5 00:56:57 10° W 01:00:00 51° SSW 01:03:01 10° ESE visible
11 Oct 0.7 02:34:44 10° WSW 02:36:06 12° SW 02:36:06 12° SW visible
12 Oct 0.0 01:31:08 10° W 01:33:36 22° SSW 01:36:04 10° SSE visible
